Showing default

O3BF04, 56367

Orbit data source: Space-Track

O3BF04, 56367 is a payload satellite owned by O3B SES (LU) that was launched on Fri, 28 Apr 2023 UTC via an FALCON 9 launch vehicle from the Air Force Eastern Test Range (AFETR). Payload-class satellites include a variety of spacecraft equipped with specific instruments for various scientific and technological missions. These include communications satellites like Starlink; space stations such as the ISS; scientific satellites like the Hubble; Earth observation satellites from companies like Planet Labs, Umbra, and HawkEye 360; GPS; miniature CubeSats for education and research; and military/defense satellites.

Loading next visibility...
Identifier
56367, 2023-059A
Orbit
Active
Country
Flag of LULU / SES
Related business
Manufacturer
Boeing/ES
Mission
Partially operational Commercial Communications
Bus & Motor
702X, PPS5000
Mass
1,700 kg wet, 1,700 kg dry
Launch date (UTC)
2023-04-28 (3 years ago)
Launch vehicle
FALCON 9
Launch site
Air Force Eastern Test Range (AFETR)
Object type
Payload
Rocket body
Debris
Shape & HBR
Box + 2 Pan, 13.5 m
Radar Cross Section
27.396 m², Large (>1 m²)

Expand to show TLE details & history
Last TLE update: 4 days ago

TLE from 4 days ago
0 O3BF04
1 56367U 23059A   26169.77353318 -.00000023  00000-0  00000+0 0  9992
2 56367   0.0634 354.4763 0007640  99.1856 266.4232  5.00115570 58685
Epoch: 2026-06-18T18:33Z
TLE epoch observation values (Epoch: 2026-06-18T18:33:53.266Z)
Latitude
0.00606°
Longitude
174.516°
Altitude
8,065.065 km
Speed
5.254 km/s
True Right ascension
23h 59m 59s
True Declination
0° 00' 22"
Sunlit
Object was in daylight at epoch
Visualization orbit readout
Latitude
Unknown
Longitude
Unknown
Altitude
Unknown
Speed
Unknown
Apparent Right ascension
Unknown
Apparent Declination
Unknown
Sunlit
N/A
Visualization observer readout
Local Sidereal Time
21:23:28
Azimuth
Unknown
Elevation
Unknown
Doppler factor
Unknown
Orbital elements
Apogee altitude
8,079.985 km
Perigee altitude
8,057.91 km
Semi-major axis
14,447.084 km
Eccentricity
0.00076
Inclination
0.0634°
RAAN
354.4763°
Arg. of periapsis
99.1856°
True anomaly
266.33583°
Mean anomaly
266.4232°
Eccentric anomaly
266.37951°
Mean motion
1.24989 °/min
Orbital period
288.02 mins
BSTAR
0
Loading maneuver chart data...
Computing Atmospheric mass density...
Loading historical data...
Loading historical data...
Loading historical data...
Loading historical data...
Loading historical data...
Loading historical data...
Loading historical data...
Other satellites on launch #59 in the year 2023 (2023-04-28 UTC)

Documentation

Showing up to 5 results
|